Regional Weather Roundup
Issued by NWS

Home | Current Version | Previous Version | Text Only | Print | Product List | Glossary On
Versions: 1 2 3 4 5 6 7 8 9 10 11 12 13 14 15 16 17 18 19 20 21 22 23 24 25 26 27 28 29 30 31 32 33 34 35 36 37 38 39 40 41 42 43 44 45 46 47 48 49 50
000
ASUS46 KSEW 191610
RWRWA

WASHINGTON REGIONAL WEATHER ROUNDUP
NATIONAL WEATHER SERVICE SEATTLE WA
800 AM PST MON FEB 19 2018

NOTE:"FAIR" INDICATES FEW OR NO CLOUDS BELOW 12,000 FEET WITH NO
SIGNIFICANT WEATHER AND/OR OBSTRUCTIONS TO VISIBILITY.

WAZ507-509-555>559-191700-
SEATTLE, TACOMA, EVERETT, AND VICINITY

CITY           SKY/WX    TMP DP  RH WIND       PRES   REMARKS
EVERETT        CLEAR     27  11  51 NW6       30.17R
BOEING FIELD   PTCLDY    31  18  58 N7        30.20R
RENTON         PTCLDY    32  15  49 NW13      30.19R WCI  22
SEATAC AIRPORT PTCLDY    29  16  58 N13       30.17R WCI  19
JBLM-MCCHORD   PTCLDY    29  19  64 N12       30.17R WCI  19
PUYALLUP       CLOUDY    28  16  59 CALM      30.16R
BREMERTON      NOT AVBL
JBLM-FT LEWIS  PTCLDY    29  17  61 N12       30.17R WCI  20
TACOMA NARROWS MOCLDY    29  14  53 N20G29    30.18R WCI  16
$$

WAZ001-503-506-510-514-515-191700-
NORTH INTERIOR

CITY           SKY/WX    TMP DP  RH WIND       PRES   REMARKS
BELLINGHAM     CLEAR     25   5  42 NE15G26   30.23R WCI  13
FRIDAY HARBOR  CLEAR     29   7  39 N12       30.24R WCI  19
EASTSOUND      CLEAR     28   9  43 VRB6G22   30.24R
PORT ANGELES   CLEAR     23  15  71 S3        30.23S
EDIZ HOOK      FAIR      29  19  63 S8        30.26R
PORT TOWNSEND  FAIR      27  16  63 CALM      30.23R
NAS WHIDBEY    CLEAR     29  13  51 E6        30.26
ARLINGTON      CLEAR     24  13  62 N15       30.20R WCI  11
BURLINGTON     CLEAR     25  12  58 N7        30.22R
$$

WAZ020-022-039-040-504-511-512-191700-
SOUTHWEST INTERIOR

CITY           SKY/WX    TMP DP  RH WIND       PRES   REMARKS
SHELTON        CLOUDY    25  22  88 CALM      30.16R
OLYMPIA        PTCLDY    30  14  51 NE6       30.18R
CHEHALIS       CLOUDY    30  19  64 N5        30.18R
KELSO          CLOUDY    31  24  75 N5        30.17R
VANCOUVER      FLURRIES  32  27  81 VRB6      30.15R
SCAPPOOSE, OR  CLOUDY    31  24  75 NW7       30.16R
PORTLAND, OR   CLOUDY    32  26  78 NW6       30.16R
$$

WAZ021-516-517-191700-
WASHINGTON COAST

CITY           SKY/WX    TMP DP  RH WIND       PRES   REMARKS
FORKS          CLEAR     26  12  55 N3        30.20R
HOQUIAM        MOCLDY    31  19  61 NE5       30.18R
ASTORIA, OR    CLEAR     30  22  72 S6        30.16R
$$

WAZ019-023-024-040-567>569-191700-
CASCADE MOUNTAINS AND COLUMBIA GORGE

CITY           SKY/WX    TMP DP  RH WIND       PRES   REMARKS
STAMPEDE PASS  NOT AVBL
TROUTDALE, OR  CLOUDY    32  22  66 NE8       30.15R
HOOD RIVER, OR CLOUDY    28  21  74 CALM      30.16R
THE DALLES, OR CLOUDY    29  20  69 NE7       30.19R
$$

WAZ026-027-041>044-520-521-191700-
EAST SLOPES

CITY           SKY/WX    TMP DP  RH WIND       PRES   REMARKS
OMAK           CLEAR     18   6  59 N15       30.15R WCI   4
WENATCHEE      CLEAR     18   9  68 CALM      30.13R
ELLENSBURG     PTCLDY    24   4  42 S5        30.06R
YAKIMA         MOCLDY    27   6  41 CALM      30.14R
SUNNYSIDE ARPT CLOUDY    23   6  47 N7        30.16R
YAKIMA TC      PTSUNNY   24   2  40 N5        30.09R
$$

WAZ028-034-035-191700-
COLUMBIA BASIN

CITY           SKY/WX    TMP DP  RH WIND       PRES   REMARKS
EPHRATA        CLEAR     21   2  43 N16       30.11R WCI   7
MOSES LAKE     CLEAR     18  11  74 N6        30.12R
PASCO          CLEAR     22   8  55 N3        30.19R
RICHLAND ARPT  SUNNY     23  11  60 N7        30.19R
HERMISTON, OR  PTSUNNY   23   6  48 N5        30.16R
$$

WAZ036>038-191700-
NORTHEAST WASHINGTON

CITY           SKY/WX    TMP DP  RH WIND       PRES   REMARKS
SPOKANE GEIGER PTSUNNY    9  -2  61 NE14      29.99R WCI  -7
SPOKANE FELTS  CLOUDY    13  -2  51 VRB3      30.03R
FAIRCHILD AFB  MOSUNNY    8  -4  57 N15       29.97R WCI  -9
COEURDALENE,ID CLOUDY    10  -1  61 N16       30.00R WCI  -7
DEER PARK      SUNNY      9  -4  55 NE8       30.03R
$$

WAZ029>033-191700-
SOUTHEAST WASHINGTON

CITY           SKY/WX    TMP DP  RH WIND       PRES   REMARKS
PULLMAN        LGT SNOW  14  12  92 W12       29.93R FOG     WCI   0
LEWISTON, ID   CLOUDY    20  11  68 NW13G18   30.01R WCI   7
WALLA WALLA    SUNNY     20   7  57 W6        30.09R
PENDLETON, OR  CLOUDY    18  10  71 NW3       30.08R
$$



USA.gov is the U.S. government's official web portal to all federal, state and local government web resources and services.